• In Deutschland
  • Länderverzeichnis
  • Für 7 Tage
  • Wassertemperatur
  • Satellitenkarten
  • Wetterkarte
  • Widgets
  • user-avatar
    Anmelden

    Stündliche Wetter Cairns

    Heute, 22 Januar, Montag

    Zeit Temperatur Niederschläge Wind Luftdruck Luftfeuchtigkeit
    00:00 +26°C° 0 mm 4 m/S 755 mmHg 96%
    01:00 +26°C° 0 mm 4 m/S 755 mmHg 96%
    02:00 +26°C° 0,1 mm 4 m/S 755 mmHg 96%
    03:00 +25°C° 0,1 mm 4 m/S 754 mmHg 96%
    04:00 +25°C° 0 mm 4 m/S 754 mmHg 97%
    05:00 +25°C° 0,4 mm 4 m/S 754 mmHg 96%
    06:00 +26°C° 0,4 mm 4 m/S 754 mmHg 95%
    07:00 +26°C° 0,4 mm 4 m/S 755 mmHg 94%
    08:00 +27°C° 0,6 mm 4 m/S 755 mmHg 91%
    09:00 +28°C° 0,6 mm 4 m/S 755 mmHg 87%
    10:00 +29°C° 0 mm 4 m/S 755 mmHg 83%
    11:00 +30°C° 0,4 mm 4 m/S 755 mmHg 79%
    12:00 +30°C° 0,4 mm 4 m/S 755 mmHg 75%
    13:00 +32°C° 0,4 mm 4 m/S 754 mmHg 72%
    14:00 +30°C° 0,2 mm 4 m/S 754 mmHg 75%
    15:00 +30°C° 0,2 mm 4 m/S 753 mmHg 78%
    16:00 +29°C° 0,2 mm 4 m/S 753 mmHg 81%
    17:00 +29°C° 0 mm 4 m/S 753 mmHg 84%
    18:00 +28°C° 0 mm 4 m/S 754 mmHg 87%
    19:00 +27°C° 0 mm 4 m/S 754 mmHg 90%
    20:00 +27°C° 0,1 mm 4 m/S 754 mmHg 91%
    21:00 +26°C° 0,1 mm 4 m/S 754 mmHg 92%
    22:00 +26°C° 0 mm 4 m/S 755 mmHg 92%
    23:00 +26°C° 0,1 mm 4 m/S 755 mmHg 92%

    Morgen, 23 Januar, Dienstag

    Zeit Temperatur Niederschläge Wind Luftdruck Luftfeuchtigkeit
    00:00 +26°C° 0,1 mm 4 m/S 755 mmHg 93%
    01:00 +26°C° 0,1 mm 3 m/S 754 mmHg 93%
    02:00 +25°C° 0,2 mm 3 m/S 754 mmHg 94%
    03:00 +25°C° 0,2 mm 3 m/S 754 mmHg 94%
    04:00 +25°C° 0,2 mm 3 m/S 754 mmHg 94%
    05:00 +25°C° 0,5 mm 3 m/S 754 mmHg 95%
    06:00 +25°C° 0,5 mm 4 m/S 754 mmHg 95%
    07:00 +25°C° 0,5 mm 4 m/S 754 mmHg 96%
    08:00 +26°C° 0,5 mm 4 m/S 754 mmHg 94%
    09:00 +27°C° 0,5 mm 4 m/S 754 mmHg 93%
    10:00 +28°C° 0,5 mm 4 m/S 755 mmHg 91%
    11:00 +29°C° 0,3 mm 4 m/S 754 mmHg 90%
    12:00 +29°C° 0,3 mm 3 m/S 754 mmHg 88%
    13:00 +30°C° 0,3 mm 3 m/S 754 mmHg 87%
    14:00 +30°C° 0,4 mm 3 m/S 753 mmHg 87%
    15:00 +30°C° 0,4 mm 3 m/S 753 mmHg 88%
    16:00 +30°C° 0,4 mm 3 m/S 753 mmHg 89%
    17:00 +29°C° 0,8 mm 3 m/S 753 mmHg 91%
    18:00 +28°C° 0,8 mm 2 m/S 753 mmHg 94%
    19:00 +28°C° 0,8 mm 2 m/S 753 mmHg 97%
    20:00 +27°C° 0,6 mm 2 m/S 754 mmHg 97%
    21:00 +27°C° 0,6 mm 2 m/S 754 mmHg 97%
    22:00 +27°C° 0,6 mm 2 m/S 754 mmHg 97%
    23:00 +27°C° 1,1 mm 2 m/S 754 mmHg 97%

    übermorgen, 24 Januar, Mittwoch

    Zeit Temperatur Niederschläge Wind Luftdruck Luftfeuchtigkeit
    00:00 +27°C° 1,1 mm 2 m/S 754 mmHg 97%
    01:00 +27°C° 1,1 mm 1 m/S 753 mmHg 97%
    02:00 +27°C° 0,9 mm 1 m/S 753 mmHg 97%
    03:00 +27°C° 0,9 mm 1 m/S 753 mmHg 97%
    04:00 +27°C° 0,9 mm 1 m/S 752 mmHg 97%
    05:00 +26°C° 0,6 mm 1 m/S 753 mmHg 96%
    06:00 +26°C° 0,6 mm 1 m/S 753 mmHg 96%
    07:00 +26°C° 0,6 mm 1 m/S 753 mmHg 96%
    08:00 +27°C° 0,2 mm 2 m/S 754 mmHg 93%
    09:00 +28°C° 0,2 mm 2 m/S 754 mmHg 91%
    10:00 +29°C° 0,2 mm 2 m/S 754 mmHg 89%
    11:00 +29°C° 0,6 mm 2 m/S 753 mmHg 89%
    12:00 +29°C° 0,6 mm 2 m/S 753 mmHg 90%
    13:00 +29°C° 0,6 mm 2 m/S 753 mmHg 91%
    14:00 +29°C° 0,4 mm 2 m/S 752 mmHg 90%
    15:00 +29°C° 0,4 mm 2 m/S 752 mmHg 89%
    16:00 +30°C° 0,4 mm 2 m/S 751 mmHg 87%
    17:00 +29°C° 0,5 mm 2 m/S 752 mmHg 90%
    18:00 +28°C° 0,5 mm 2 m/S 752 mmHg 93%
    19:00 +27°C° 0,5 mm 3 m/S 752 mmHg 95%
    20:00 +27°C° 1,7 mm 2 m/S 753 mmHg 96%
    21:00 +27°C° 1,7 mm 2 m/S 753 mmHg 97%
    22:00 +27°C° 1,7 mm 2 m/S 753 mmHg 97%
    23:00 +26°C° 1,9 mm 2 m/S 753 mmHg 97%

    25 Januar, Donnerstag

    Zeit Temperatur Niederschläge Wind Luftdruck Luftfeuchtigkeit
    00:00 +26°C° 1,9 mm 2 m/S 753 mmHg 98%
    01:00 +26°C° 1,9 mm 2 m/S 753 mmHg 98%
    02:00 +26°C° 2,2 mm 2 m/S 752 mmHg 98%
    03:00 +26°C° 2,2 mm 2 m/S 752 mmHg 97%
    04:00 +26°C° 2,2 mm 2 m/S 751 mmHg 97%
    05:00 +26°C° 1 mm 1 m/S 752 mmHg 97%
    06:00 +26°C° 1 mm 1 m/S 752 mmHg 96%
    07:00 +26°C° 1 mm 1 m/S 753 mmHg 95%
    08:00 +28°C° 0,1 mm 1 m/S 753 mmHg 90%
    09:00 +29°C° 0,1 mm 1 m/S 753 mmHg 84%
    10:00 +31°C° 0,1 mm 1 m/S 753 mmHg 78%
    11:00 +31°C° 0,1 mm 1 m/S 753 mmHg 76%
    12:00 +32°C° 0,1 mm 1 m/S 752 mmHg 74%
    13:00 +32°C° 0,1 mm 1 m/S 752 mmHg 72%
    14:00 +32°C° 0,5 mm 1 m/S 751 mmHg 77%
    15:00 +31°C° 0,5 mm 1 m/S 751 mmHg 82%
    16:00 +30°C° 0,5 mm 1 m/S 750 mmHg 88%
    17:00 +29°C° 1 mm 1 m/S 751 mmHg 90%
    18:00 +28°C° 1 mm 1 m/S 751 mmHg 92%
    19:00 +28°C° 1 mm 1 m/S 752 mmHg 95%
    20:00 +27°C° 1,2 mm 1 m/S 752 mmHg 95%
    21:00 +27°C° 1,2 mm 1 m/S 753 mmHg 95%
    22:00 +27°C° 1,2 mm 1 m/S 753 mmHg 96%
    23:00 +27°C° 0,4 mm 1 m/S 753 mmHg 96%

    26 Januar, Freitag

    Zeit Temperatur Niederschläge Wind Luftdruck Luftfeuchtigkeit
    00:00 +27°C° 0,4 mm 1 m/S 752 mmHg 96%
    01:00 +27°C° 0,4 mm 1 m/S 752 mmHg 96%
    02:00 +27°C° 0 mm 1 m/S 751 mmHg 95%
    03:00 +27°C° 0 mm 2 m/S 751 mmHg 95%
    04:00 +26°C° 0 mm 2 m/S 750 mmHg 95%
    05:00 +27°C° 0 mm 2 m/S 751 mmHg 94%
    06:00 +27°C° 0 mm 2 m/S 751 mmHg 94%
    07:00 +27°C° 0 mm 2 m/S 752 mmHg 93%
    08:00 +29°C° 0 mm 2 m/S 752 mmHg 84%
    09:00 +31°C° 0 mm 2 m/S 752 mmHg 76%
    10:00 +35°C° 0 mm 3 m/S 752 mmHg 67%
    11:00 +34°C° 0,6 mm 3 m/S 752 mmHg 71%
    12:00 +34°C° 0,6 mm 3 m/S 751 mmHg 75%
    13:00 +34°C° 0,6 mm 4 m/S 751 mmHg 80%
    14:00 +33°C° 1,1 mm 4 m/S 751 mmHg 82%
    15:00 +33°C° 1,1 mm 4 m/S 750 mmHg 84%
    16:00 +32°C° 1,1 mm 4 m/S 750 mmHg 86%
    17:00 +30°C° 1,3 mm 3 m/S 750 mmHg 88%
    18:00 +29°C° 1,3 mm 3 m/S 751 mmHg 91%
    19:00 +28°C° 1,3 mm 2 m/S 751 mmHg 94%
    20:00 +28°C° 1,3 mm 2 m/S 752 mmHg 94%
    21:00 +28°C° 1,3 mm 3 m/S 752 mmHg 94%
    22:00 +28°C° 1,3 mm 3 m/S 753 mmHg 93%
    23:00 +27°C° 0,6 mm 3 m/S 752 mmHg 94%

    27 Januar, Samstag

    Zeit Temperatur Niederschläge Wind Luftdruck Luftfeuchtigkeit
    00:00 +27°C° 0,6 mm 3 m/S 752 mmHg 94%
    01:00 +27°C° 0,6 mm 3 m/S 751 mmHg 95%
    02:00 +27°C° 0,2 mm 3 m/S 751 mmHg 95%
    03:00 +27°C° 0,2 mm 3 m/S 751 mmHg 95%
    04:00 +27°C° 0,2 mm 3 m/S 750 mmHg 96%
    05:00 +27°C° 0,1 mm 3 m/S 751 mmHg 96%
    06:00 +27°C° 0,1 mm 3 m/S 751 mmHg 95%
    07:00 +27°C° 0,1 mm 3 m/S 751 mmHg 95%
    08:00 +28°C° 0,1 mm 3 m/S 752 mmHg 93%
    09:00 +29°C° 0,1 mm 3 m/S 752 mmHg 90%
    10:00 +30°C° 0,1 mm 3 m/S 752 mmHg 87%
    11:00 +30°C° 0,1 mm 3 m/S 751 mmHg 84%
    12:00 +32°C° 0,1 mm 4 m/S 751 mmHg 81%
    13:00 +32°C° 0,1 mm 4 m/S 750 mmHg 78%
    14:00 +32°C° 0,2 mm 4 m/S 750 mmHg 80%
    15:00 +32°C° 0,2 mm 4 m/S 750 mmHg 82%
    16:00 +30°C° 0,2 mm 4 m/S 749 mmHg 84%
    17:00 +29°C° 0,3 mm 4 m/S 750 mmHg 87%
    18:00 +28°C° 0,3 mm 4 m/S 750 mmHg 91%
    19:00 +27°C° 0,3 mm 3 m/S 751 mmHg 94%
    20:00 +27°C° 0,6 mm 3 m/S 751 mmHg 95%
    21:00 +27°C° 0,6 mm 3 m/S 751 mmHg 96%
    22:00 +27°C° 0,6 mm 2 m/S 752 mmHg 97%
    23:00 +27°C° 1,5 mm 2 m/S 751 mmHg 97%
    Mehr zeigen